Terminal Aerodrome Forecast
Issued by NWS

Home | Current Version | Previous Version | Text Only | Print | Product List | Glossary On
Versions: 1 2 3 4 5 6 7 8 9 10 11 12 13 14 15 16 17 18
000
FTAK31 PAJN 040804 AAB
TAFAKT
TAF AMD
PAKT 040804Z 0408/0506 VRB05KT 6SM BR VCSH SCT004 BKN025
      TEMPO 0408/0412 1/2SM FG OVC004
     FM041500 14008KT 6SM -SHRA BR BKN020 OVC040
     FM050400 15007KT P6SM VCSH BKN025 OVC040=

USA.gov is the U.S. government's official web portal to all federal, state and local government web resources and services.